#timestamp,LO_Frequency,Hit,StdDev 
1620961215.5,286047001.2,N
1620961235.3,286047001.0,N
1620961255.2,286046996.6,Y
1620961275.0,286047001.2,P
1620961275.9,286047001.2,P
1620961295.7,286047002.5,P
1620961315.6,286047002.1,N
1620961335.4,286047004.8,Y
1620961355.3,286046996.5,P
1620961375.1,286046993.7,N
1620961395.8,286046993.3,N
1620961415.7,286046998.2,N
1620961435.5,286046999.4,N
1620961455.4,286046996.3,N
1620961475.2,286046999.3,N
1620961495.0,286046994.9,N
1620961495.9,286046994.9,N
1620961515.8,286046995.5,N
1620961535.6,286047005.4,N
1620961555.4,286047009.2,N
1620961575.3,286047006.2,N
1620961595.1,286047004.9,N
1620961615.9,286047010.0,N
1620961635.7,286047014.9,N
1620961655.5,286047015.4,N
1620961675.4,286047006.5,N
1620961695.2,286047005.0,N
1620961715.0,286047003.9,N
1620961716.0,286047003.9,N
1620961735.8,286047008.3,N
1620961755.6,286047008.5,N
1620961775.5,286047002.5,N
1620961795.3,286047000.7,N
1620961815.1,286046998.4,N
1620961835.9,286047000.4,N
1620961855.7,286046998.1,N
1620961875.6,286046999.2,N
1620961895.4,286047005.3,N
1620961915.2,286047001.3,N
1620961935.1,286047004.0,N
1620961936.0,286047004.0,N
1620961955.8,286047003.4,N
1620961975.7,286047007.4,N
1620961995.5,286047005.5,N
1620962015.3,286047004.1,N
1620962035.2,286047002.5,N
1620962055.0,286047000.2,N
1620962055.9,286047000.2,N
1620962075.8,286047002.8,N
1620962095.6,286047000.3,N
1620962115.4,286046997.9,N
1620962135.3,286046998.3,N
1620962155.1,286047004.4,N
1620962175.9,286047002.5,N
1620962195.7,286047006.9,N
1620962215.5,286047004.8,N
1620962235.4,286047008.3,N
1620962255.2,286047006.3,N
1620962275.0,286047003.9,N
1620962275.9,286047003.9,N
1620962295.8,286047002.6,N
1620962315.6,286047002.8,N
1620962335.5,286047003.2,N
1620962355.3,286047004.7,N
1620962375.1,286047010.3,Y
1620962395.9,286047010.4,P
1620962415.7,286047004.0,N
1620962435.6,286047003.7,N
1620962455.4,286047003.0,N
1620962475.2,286047005.5,N
1620962495.1,286046999.0,N
1620962496.0,286046999.0,N
1620962515.8,286047006.8,N
1620962535.6,286047006.0,N
1620962555.5,286047006.6,N
1620962575.3,286047000.8,N
1620962595.2,286046997.2,N
1620962615.9,286046995.1,N
1620962635.7,286047005.2,N
1620962655.6,286047007.2,N
1620962675.4,286047007.1,N
1620962695.2,286047009.0,N
1620962715.1,286047015.4,Y
1620962716.0,286047015.4,P
1620962735.8,286047010.3,N
1620962755.7,286047007.7,N
1620962775.5,286047004.6,N
1620962795.3,286047005.5,N
1620962815.2,286047003.2,N
1620962835.0,286046997.8,N
1620962835.9,286046997.8,N
1620962855.8,286046996.9,N
1620962875.6,286046992.8,N
1620962895.4,286046997.3,N
1620962915.3,286046996.3,N
1620962935.1,286046996.2,N
1620962955.9,286047004.2,N
1620962975.7,286047001.6,N
1620962995.5,286046996.5,N
1620963015.4,286046996.4,N
1620963035.2,286046994.8,N
1620963055.0,286046995.5,N
1620963055.9,286046995.5,N
1620963075.8,286046995.7,N
1620963095.6,286046993.8,N
1620963115.5,286046998.2,N
1620963135.3,286046997.6,N
1620963155.2,286046994.1,N
1620963175.9,286046995.9,N
1620963195.7,286046994.8,N
1620963215.6,286046994.6,N
1620963235.4,286046991.0,N
1620963255.3,286046994.8,N
1620963275.1,286046987.6,N
1620963276.0,286046987.6,N
1620963295.8,286046990.4,N
1620963315.7,286046989.6,N
1620963335.5,286046996.1,N
1620963355.4,286046996.3,N
1620963375.2,286046993.1,N
1620963395.0,286046987.6,Y
1620963395.9,286046987.6,P
1620963415.8,286046999.0,N
1620963435.6,286046997.1,N
1620963455.4,286046997.9,N
1620963475.3,286046994.3,N
1620963495.1,286046993.1,N
1620963515.9,286046996.6,N
1620963535.7,286046998.2,N
1620963555.5,286047003.2,N
1620963575.4,286046999.8,N
1620963595.2,286046994.1,N
1620963615.1,286046995.4,N
1620963616.0,286046995.4,N
1620963635.8,286046999.0,N
1620963655.6,286047002.0,N
1620963675.5,286047007.2,N
1620963695.3,286047008.0,N
1620963715.1,286047011.6,N
1620963735.9,286047010.0,N
1620963755.7,286047007.4,N
1620963775.6,286047004.4,N
1620963795.4,286047008.0,N
1620963815.2,286047005.9,N
1620963835.1,286047004.1,N
1620963836.0,286047004.1,N
1620963855.8,286047000.4,N
1620963875.6,286046999.7,N
1620963895.5,286046998.2,N
1620963915.3,286046998.8,N
1620963935.2,286047005.1,N
1620963955.9,286047001.4,N
1620963975.7,286047003.8,N
1620963995.6,286047006.9,N
1620964015.4,286047002.4,N
1620964035.3,286046998.6,N
1620964055.1,286046999.2,N
1620964056.0,286046999.2,N
1620964075.8,286047000.2,N
1620964095.7,286047001.4,N
1620964115.5,286047000.8,N
1620964135.3,286046998.3,N
1620964155.2,286046998.9,N
1620964175.0,286046998.9,N
1620964175.9,286046998.9,N
1620964195.8,286047006.0,N
1620964215.6,286046997.8,N
1620964235.4,286046995.1,N
1620964255.3,286046999.1,N
1620964275.1,286046999.5,N
1620964295.9,286046998.5,N
1620964315.7,286046997.7,N
1620964335.5,286047004.0,N
1620964355.4,286047005.5,N
1620964375.2,286047004.6,N
1620964395.0,286047001.9,N
1620964395.9,286047001.9,N
1620964415.8,286046998.8,N
1620964435.6,286046996.5,N
1620964455.5,286047003.3,N
1620964475.3,286047009.2,Y
1620964495.1,286047000.2,P
1620964515.9,286047000.6,N
1620964535.7,286047002.4,P
1620964555.6,286047003.0,Y
1620964575.4,286047003.6,P
1620964595.2,286047000.9,N
1620964615.1,286046998.0,N
1620964616.0,286046998.0,N
1620964635.8,286046996.6,N
1620964655.6,286046993.8,N
1620964675.5,286046995.5,N
1620964695.3,286046997.3,N
1620964715.2,286047001.6,N
1620964735.9,286046998.6,N
1620964755.7,286046991.5,Y
1620964775.6,286046992.6,P
1620964795.4,286046990.6,P
